Weather History for Jaipur, India

Change the Weather History Date:

Monday, November 18, 2013

  Actual Average Record
Temperature  
Mean Temperature 68 °F -  
Max Temperature 84 °F - - ()
Min Temperature 53 °F - - ()
Cooling Degree Days 4    
Growing Degree Days 18 (Base 50)    
Moisture  
Dew Point 39 °F    
Average Humidity 35    
Maximum Humidity 59    
Minimum Humidity 11    
Precipitation  
Precipitation 0.00 in - - ()
Sea Level Pressure  
Sea Level Pressure 30.08 in    
Wind  
Wind Speed 1 mph ()    
Max Wind Speed 7 mph    
Max Gust Speed -    
Visibility 1.5 miles    
Events      
T = Trace of Precipitation, MM = Missing Value Source: Averaged Metar Reports

Daily Weather History Graph

Daily Weather History Graph

Search for Another Location

Airport:

Trip Planner

Search our weather history database for the weather conditions in past years. The results will help you decide how hot, cold, wet, or windy it might be!

Date:

Astronomy

Nov. 18, 2013 Rise Set
Actual Time 6:48 AM IST 5:35 PM IST
Civil Twilight 6:23 AM IST 5:59 PM IST
Nautical Twilight 5:55 AM IST 6:27 PM IST
Astronomical Twilight 5:27 AM IST 6:55 PM IST
Moon 6:17 PM IST (11/18) 7:12 AM IST (11/18)
Length of Visible Light 11h 35m
Length of Day
10h 46m
Full, 100% of the Moon is Illuminated
Nov 18
Full
Nov 26
Last Quarter
Dec 3
New
Dec 9
First Quarter
Dec 17
Full

Hourly Weather History & Observations

Time (IST) Temp. Dew Point Humidity Pressure Visibility Wind Dir Wind Speed Gust Speed Precip Events Conditions
12:00 AM 59.0 °F 41.0 °F 51% 30.09 in 1.6 mi Calm Calm - N/A   Smoke
1:00 AM 57.2 °F 41.0 °F 55% 30.09 in 1.6 mi Calm Calm - N/A   Smoke
2:00 AM 57.2 °F 42.8 °F 59% 30.06 in 1.6 mi Calm Calm - N/A   Smoke
2:30 AM 58 °F 42 °F 44% 30.07 in 1 mi Calm Calm - -   Smoke
3:00 AM 57.2 °F 41.0 °F 55% 30.06 in 1.6 mi Calm Calm - N/A   Smoke
4:00 AM 57.2 °F 41.0 °F 55% 30.06 in 1.6 mi Calm Calm - N/A   Smoke
5:00 AM 55.4 °F 41.0 °F 58% 30.06 in 1.6 mi Calm Calm - N/A   Smoke
5:30 AM 56 °F 42 °F 47% 30.07 in 1 mi Calm Calm - -   Smoke
6:00 AM 57.2 °F 39.2 °F 51% 30.09 in 1.6 mi Calm Calm - N/A   Smoke
7:00 AM 55.4 °F 41.0 °F 58% 30.12 in 1.2 mi Calm Calm - N/A   Smoke
8:00 AM 59.0 °F 42.8 °F 55% 30.12 in 1.1 mi Calm Calm - N/A   Smoke
8:30 AM 63 °F 45 °F 40% 30.12 in 1 mi Calm Calm - -   Smoke
9:00 AM 69.8 °F 39.2 °F 33% 30.15 in 1.2 mi Variable 1.2 mph - N/A   Smoke
10:00 AM 77.0 °F 39.2 °F 26% 30.15 in 1.6 mi Variable 1.2 mph - N/A   Smoke
11:00 AM 77.0 °F 35.6 °F 22% 30.15 in 1.6 mi Variable 4.6 mph - N/A   Smoke
11:30 AM 78 °F 33 °F 11% 30.08 in 1 mi WNW 4.6 mph - -   Haze
12:00 PM 78.8 °F 33.8 °F 20% 30.12 in 1.9 mi Variable 3.5 mph - N/A   Haze
1:00 PM 80.6 °F 33.8 °F 18% 30.09 in 1.9 mi Variable 3.5 mph - N/A   Haze
2:00 PM 82.4 °F 35.6 °F 19% 30.06 in 1.9 mi Variable 2.3 mph - N/A   Haze
2:30 PM 82 °F 38 °F 12% 29.99 in 1 mi NNE 6.9 mph - -   Haze
3:00 PM 82.4 °F 35.6 °F 19% 30.04 in 1.9 mi NNW 4.6 mph - N/A   Haze
4:00 PM 82.4 °F 33.8 °F 17% 30.04 in 2.5 mi Variable 6.9 mph - N/A   Haze
5:00 PM 80.6 °F 33.8 °F 18% 30.04 in 2.5 mi Variable 4.6 mph - N/A   Haze
5:30 PM 77 °F 38 °F 15% 29.99 in 2 mi NNW 2.3 mph - -   Haze
7:00 PM 73.4 °F 37.4 °F 27% 30.06 in 1.6 mi Variable 3.5 mph - N/A   Smoke
8:00 PM 69.8 °F 37.4 °F 31% 30.09 in 1.6 mi NNE 4.6 mph - N/A   Smoke
8:30 PM 70 °F 39 °F 21% 30.03 in 1 mi WNW 4.6 mph - -   Smoke
9:00 PM 69.8 °F 37.4 °F 31% 30.09 in 1.2 mi Variable 3.5 mph - N/A   Smoke
10:00 PM 62.6 °F 39.2 °F 42% 30.09 in 1.2 mi Variable 3.5 mph - N/A   Smoke
11:00 PM 60.8 °F 41.0 °F 48% 30.09 in 1.2 mi Calm Calm - N/A   Smoke
11:30 PM 60 °F 42 °F 39% 30.06 in 1 mi Calm Calm - -   Smoke